| time (UTC) | temp F | wind direction | speed MPH | gust MPH | rain 1hr in | rain 24hr in | rain mn in | humidity % | barometer mb |
| 20260903213045 | 89 | 98 | 10.0 | 16.0 | 0.00 | 0.00 | 0.00 | 65 | 1008.6 |
| 20260903211600 | 88 | 121 | 9.0 | 15.0 | 0.00 | 0.00 | 0.00 | 66 | 1008.7 |
| 20260903210041 | 89 | 98 | 8.0 | 16.0 | 0.00 | 0.00 | 0.00 | 66 | 1008.8 |
| 20260903204539 | 88 | 102 | 8.0 | 15.0 | 0.00 | 0.00 | 0.00 | 67 | 1009.0 |
| 20260903203040 | 88 | 84 | 12.0 | 19.0 | 0.00 | 0.00 | 0.00 | 67 | 1009.1 |
| 20260903201537 | 87 | 124 | 10.0 | 17.0 | 0.00 | 0.00 | 0.00 | 69 | 1009.2 |
| 20260903200034 | 87 | 136 | 7.0 | 15.0 | 0.00 | 0.00 | 0.00 | 69 | 1009.3 |
| 20260903194533 | 87 | 121 | 8.0 | 17.0 | 0.00 | 0.00 | 0.00 | 69 | 1009.6 |
| 20260903193030 | 86 | 126 | 8.0 | 15.0 | 0.00 | 0.00 | 0.00 | 70 | 1009.8 |
| 20260903191530 | 87 | 135 | 7.0 | 16.0 | 0.00 | 0.00 | 0.00 | 69 | 1010.0 |
| 20260903190027 | 87 | 161 | 7.0 | 17.0 | 0.00 | 0.00 | 0.00 | 70 | 1010.2 |
| 20260903184526 | 87 | 128 | 10.0 | 15.0 | 0.00 | 0.00 | 0.00 | 69 | 1010.4 |
| 20260903183027 | 87 | 129 | 10.0 | 15.0 | 0.00 | 0.00 | 0.00 | 68 | 1010.7 |
| 20260903181525 | 87 | 162 | 8.0 | 16.0 | 0.00 | 0.00 | 0.00 | 67 | 1010.8 |
| 20260903180024 | 87 | 186 | 9.0 | 17.0 | 0.00 | 0.00 | 0.00 | 67 | 1010.9 |
| 20260903174533 | 87 | 131 | 8.0 | 13.0 | 0.00 | 0.00 | 0.00 | 66 | 1011.1 |
| 20260903173033 | 86 | 192 | 9.0 | 17.0 | 0.00 | 0.00 | 0.00 | 68 | 1011.3 |
| 20260903171518 | 86 | 143 | 8.0 | 15.0 | 0.00 | 0.00 | 0.00 | 70 | 1011.4 |
| 20260903170025 | 86 | 146 | 8.0 | 14.0 | 0.00 | 0.00 | 0.00 | 71 | 1011.4 |
| 20260903164516 | 85 | 140 | 8.0 | 14.0 | 0.00 | 0.00 | 0.00 | 71 | 1011.4 |
| 20260903163016 | 85 | 123 | 8.0 | 12.0 | 0.00 | 0.00 | 0.00 | 72 | 1011.4 |
| 20260903161511 | 84 | 152 | 6.0 | 12.0 | 0.00 | 0.00 | 0.00 | 73 | 1011.4 |
| 20260903160009 | 83 | 121 | 6.0 | 11.0 | 0.00 | 0.00 | 0.00 | 76 | 1011.3 |
| 20260903154507 | 82 | 130 | 5.0 | 11.0 | 0.00 | 0.00 | 0.00 | 78 | 1011.3 |
| 20260903153004 | 82 | 119 | 5.0 | 9.0 | 0.00 | 0.00 | 0.00 | 79 | 1011.3 |
| 20260903151501 | 81 | 139 | 6.0 | 9.0 | 0.00 | 0.00 | 0.00 | 81 | 1011.4 |
| 20260903150101 | 80 | 123 | 6.0 | 10.0 | 0.00 | 0.00 | 0.00 | 82 | 1011.4 |
| 20260903144602 | 79 | 104 | 6.0 | 10.0 | 0.00 | 0.00 | 0.00 | 83 | 1011.3 |
| 20260903143107 | 78 | 107 | 3.0 | 9.0 | 0.00 | 0.00 | 0.00 | 84 | 1011.3 |
| 20260903141557 | 78 | 119 | 4.0 | 9.0 | 0.00 | 0.00 | 0.00 | 84 | 1011.2 |
| 20260903140057 | 77 | 121 | 6.0 | 10.0 | 0.00 | 0.00 | 0.00 | 85 | 1011.3 |
| 20260903134605 | 76 | 133 | 4.0 | 8.0 | 0.00 | 0.00 | 0.00 | 86 | 1011.1 |
| 20260903133107 | 76 | 107 | 5.0 | 9.0 | 0.00 | 0.00 | 0.00 | 86 | 1011.2 |
| 20260903131555 | 75 | 65 | 3.0 | 7.0 | 0.00 | 0.00 | 0.00 | 87 | 1011.1 |
| 20260903130124 | 74 | 102 | 5.0 | 7.0 | 0.00 | 0.00 | 0.00 | 87 | 1011.0 |
| 20260903124605 | 74 | 99 | 3.0 | 6.0 | 0.00 | 0.00 | 0.00 | 87 | 1011.1 |
| 20260903123054 | 74 | 61 | 3.0 | 6.0 | 0.00 | 0.00 | 0.00 | 87 | 1011.0 |
| 20260903121553 | 74 | 110 | 3.0 | 8.0 | 0.00 | 0.00 | 0.00 | 87 | 1010.9 |
| 20260903120053 | 74 | 92 | 4.0 | 7.0 | 0.00 | 0.00 | 0.00 | 87 | 1010.9 |
| 20260903114551 | 74 | 98 | 4.0 | 6.0 | 0.00 | 0.00 | 0.00 | 86 | 1010.8 |
| 20260903113051 | 74 | 114 | 3.0 | 6.0 | 0.00 | 0.00 | 0.00 | 86 | 1010.6 |
| 20260903111549 | 74 | 84 | 3.0 | 5.0 | 0.00 | 0.00 | 0.00 | 86 | 1010.6 |
| 20260903110048 | 74 | 118 | 4.0 | 7.0 | 0.00 | 0.00 | 0.00 | 86 | 1010.5 |
| 20260903104548 | 74 | 103 | 5.0 | 7.0 | 0.00 | 0.00 | 0.00 | 86 | 1010.4 |
| 20260903103047 | 74 | 103 | 6.0 | 8.0 | 0.00 | 0.00 | 0.00 | 85 | 1010.5 |
| 20260903101551 | 74 | 96 | 4.0 | 7.0 | 0.00 | 0.00 | 0.00 | 85 | 1010.6 |
| 20260903100044 | 75 | 101 | 4.0 | 7.0 | 0.00 | 0.00 | 0.00 | 85 | 1010.4 |
| 20260903094553 | 75 | 113 | 3.0 | 4.0 | 0.00 | 0.00 | 0.00 | 84 | 1010.3 |
| 20260903093042 | 75 | 114 | 2.0 | 3.0 | 0.00 | 0.00 | 0.00 | 84 | 1010.3 |
| 20260903091541 | 75 | 113 | 0.0 | 0.0 | 0.00 | 0.00 | 0.00 | 85 | 1010.3 |
| 20260903090054 | 74 | 94 | 0.0 | 0.0 | 0.00 | 0.00 | 0.00 | 85 | 1010.3 |
| 20260903084539 | 75 | 94 | 0.0 | 0.0 | 0.00 | 0.00 | 0.00 | 84 | 1010.3 |
| 20260903083053 | 75 | 113 | 0.0 | 3.0 | 0.00 | 0.00 | 0.00 | 84 | 1010.4 |
| 20260903081536 | 75 | 107 | 1.0 | 4.0 | 0.00 | 0.00 | 0.00 | 83 | 1010.5 |
| 20260903080035 | 75 | 132 | 1.0 | 3.0 | 0.00 | 0.00 | 0.00 | 83 | 1010.6 |
| 20260903074534 | 75 | 155 | 0.0 | 3.0 | 0.00 | 0.00 | 0.00 | 82 | 1010.5 |
| 20260903073032 | 76 | 121 | 1.0 | 3.0 | 0.00 | 0.00 | 0.00 | 81 | 1010.6 |
| 20260903071530 | 76 | 165 | 0.0 | 2.0 | 0.00 | 0.00 | 0.00 | 79 | 1010.5 |
| 20260903070028 | 77 | 165 | 0.0 | 3.0 | 0.00 | 0.00 | 0.00 | 78 | 1010.7 |
| 20260903064525 | 77 | 147 | 0.0 | 3.0 | 0.00 | 0.00 | 0.00 | 77 | 1010.9 |
| 20260903063037 | 78 | 135 | 2.0 | 4.0 | 0.00 | 0.00 | 0.00 | 76 | 1011.0 |
| 20260903061522 | 78 | 111 | 3.0 | 7.0 | 0.00 | 0.00 | 0.00 | 76 | 1011.1 |
| 20260903060038 | 79 | 118 | 6.0 | 11.0 | 0.00 | 0.00 | 0.00 | 74 | 1011.2 |
| 20260903054517 | 79 | 114 | 7.0 | 15.0 | 0.00 | 0.00 | 0.00 | 73 | 1011.2 |
| 20260903053014 | 80 | 103 | 7.0 | 12.0 | 0.00 | 0.00 | 0.00 | 73 | 1011.2 |
| 20260903051510 | 80 | 133 | 7.0 | 13.0 | 0.00 | 0.00 | 0.00 | 71 | 1011.1 |
| 20260903050008 | 81 | 110 | 8.0 | 15.0 | 0.00 | 0.00 | 0.00 | 71 | 1011.0 |
| 20260903044507 | 81 | 88 | 9.0 | 14.0 | 0.00 | 0.00 | 0.00 | 70 | 1010.9 |
| 20260903043020 | 82 | 110 | 6.0 | 13.0 | 0.00 | 0.00 | 0.00 | 70 | 1010.9 |
| 20260903041506 | 82 | 120 | 5.0 | 10.0 | 0.00 | 0.00 | 0.00 | 69 | 1011.0 |
| 20260903040008 | 83 | 111 | 6.0 | 9.0 | 0.00 | 0.00 | 0.00 | 68 | 1011.0 |
| 20260903034507 | 83 | 116 | 3.0 | 10.0 | 0.00 | 0.00 | 0.00 | 67 | 1011.0 |
| 20260903033011 | 84 | 129 | 7.0 | 13.0 | 0.00 | 0.00 | 0.00 | 66 | 1011.1 |
| 20260903031504 | 85 | 126 | 6.0 | 10.0 | 0.00 | 0.00 | 0.00 | 64 | 1010.9 |
| 20260903030003 | 86 | 115 | 7.0 | 11.0 | 0.00 | 0.00 | 0.00 | 62 | 1010.8 |
| 20260903024503 | 86 | 101 | 8.0 | 13.0 | 0.00 | 0.00 | 0.00 | 60 | 1010.6 |
| 20260903023003 | 87 | 113 | 8.0 | 13.0 | 0.00 | 0.00 | 0.00 | 59 | 1010.3 |
| 20260903021508 | 87 | 109 | 6.0 | 11.0 | 0.00 | 0.00 | 0.00 | 58 | 1010.2 |
| 20260903020001 | 87 | 119 | 7.0 | 13.0 | 0.00 | 0.00 | 0.00 | 57 | 1009.9 |
| 20260903014501 | 88 | 120 | 6.0 | 11.0 | 0.00 | 0.00 | 0.00 | 56 | 1009.7 |
| 20260903013107 | 89 | 121 | 7.0 | 17.0 | 0.00 | 0.00 | 0.00 | 54 | 1009.6 |
| 20260903010051 | 91 | 92 | 10.0 | 16.0 | 0.00 | 0.00 | 0.00 | 47 | 1009.1 |
| 20260903004552 | 92 | 101 | 12.0 | 23.0 | 0.00 | 0.00 | 0.00 | 46 | 1009.1 |
| 20260903003047 | 93 | 74 | 14.0 | 21.0 | 0.00 | 0.00 | 0.00 | 44 | 1009.0 |
| 20260903001550 | 94 | 76 | 7.0 | 13.0 | 0.00 | 0.00 | 0.00 | 41 | 1008.9 |
| 20260903000046 | 95 | 61 | 6.0 | 14.0 | 0.00 | 0.00 | 0.00 | 41 | 1009.0 |
| 20260902234559 | 96 | 86 | 9.0 | 14.0 | 0.00 | 0.00 | 0.00 | 39 | 1008.9 |
| 20260902233049 | 96 | 101 | 7.0 | 13.0 | 0.00 | 0.00 | 0.00 | 39 | 1008.8 |
| 20260902231552 | 96 | 82 | 10.0 | 15.0 | 0.00 | 0.00 | 0.00 | 39 | 1008.8 |
| 20260902230044 | 96 | 100 | 11.0 | 16.0 | 0.00 | 0.00 | 0.00 | 39 | 1008.7 |
| 20260902224546 | 97 | 51 | 7.0 | 14.0 | 0.00 | 0.00 | 0.00 | 38 | 1008.9 |
| 20260902223045 | 97 | 75 | 6.0 | 16.0 | 0.00 | 0.00 | 0.00 | 39 | 1008.9 |
| 20260902221541 | 97 | 36 | 5.0 | 12.0 | 0.00 | 0.00 | 0.00 | 39 | 1009.0 |
| 20260902220041 | 97 | 53 | 6.0 | 15.0 | 0.00 | 0.00 | 0.00 | 39 | 1009.0 |
| 20260902214540 | 97 | 71 | 7.0 | 16.0 | 0.00 | 0.00 | 0.00 | 40 | 1009.3 |